Temp
13 12 12 13 13 13 12 12 13 13 12 12 12 12 13 14 13 12 11 11 11 11 11 11 12 11 11 11 10 10 10 11 11 11 11 11 11 11 11 11 11 11 11 10 11 11 11 11 11 11 11 11 11 11 11 10 11 11 11 10 10 10 10 10 10 10 10 10 9 9 10 10 10 10
13 13 12 12 12 12 12 12 12 12 12 12 12 12 13 13 13 13 13 12 11 11 11 11 11 12 11 10 10 10 10 11 11 11 11 11 11 11 11 11 10 10 10 10 10 10 10 10 10 10 10 10 10 10 10 10 10 10 10 10 10 10 10 10 10 10 10 10 10 10 10 9 9 9
13 13 12 13 13 12 12 12 12 12 12 12 12 12 12 12 12 13 13 13 12 12 12 11 11 11 11 10 10 10 10 10 10 11 11 11 11 11 11 10 10 10 10 10 10 10 10 10 10 10 10 10 10 10 10 10 10 10 10 10 9 9 9 9 9 9 9 9 9 9 9 9 9 9
12 12 12 12 12 12 12 12 12 12 12 12 12 12 12 12 12 12 13 13 13 12 12 12 11 11 11 11 10 10 10 10 10 11 11 11 11 11 11 10 10 10 10 10 10 10 10 10 10 10 10 10 10 10 9 9 9 9 9 9 9 9 9 9 9 9 9 9 9 9 9 9 8 8
12 12 12 12 12 12 12 12 12 12 12 12 12 12 12 12 12 12 12 13 13 12 12 11 11 11 11 11 11 10 10 10 11 11 11 10 10 10 10 10 10 10 10 10 10 10 10 10 9 9 9 9 9 9 9 9 9 9 9 9 9 9 9 9 9 9 9 9 9 9 8 8 8 8
12 12 12 12 12 12 12 12 12 12 12 12 12 12 12 12 12 12 12 12 13 13 12 11 11 11 11 11 11 11 10 11 11 11 11 11 10 10 10 10 10 10 10 10 10 10 10 9 9 9 9 9 9 9 9 9 9 8 8 8 9 9 9 9 9 9 9 9 8 8 8 8 8 8
12 12 12 12 12 12 12 12 12 12 12 12 12 12 12 12 12 12 13 13 13 13 12 12 11 11 11 11 11 11 10 10 11 11 11 11 10 10 10 10 10 10 10 10 10 10 9 9 9 9 9 9 9 9 9 9 8 8 8 8 8 8 8 8 8 8 8 8 8 8 8 8 8 8
12 12 12 12 12 12 12 12 12 12 12 12 13 13 13 13 12 13 13 13 13 13 13 12 12 11 11 11 11 11 10 10 10 10 11 10 11 11 10 10 10 10 10 10 10 9 9 9 9 9 9 9 9 9 8 8 8 8 8 8 8 8 8 8 8 8 8 8 8 8 8 8 8 8
12 12 12 12 12 12 12 12 12 12 13 13 13 13 13 13 13 13 13 13 13 13 13 13 12 11 11 11 11 11 11 11 11 11 11 10 11 10 10 10 10 10 10 10 9 9 9 9 9 9 9 9 9 9 8 8 8 8 8 8 8 8 8 8 8 8 8 8 8 8 8 8 8 8
12 12 12 12 12 12 12 12 12 13 13 13 13 13 13 13 13 13 13 13 13 13 13 12 12 12 11 11 11 11 11 11 11 11 11 11 10 10 10 10 10 10 10 10 9 9 9 9 9 9 9 9 9 9 8 8 8 8 8 8 8 8 8 8 8 8 8 8 8 8 8 8 8 8
12 12 12 12 12 12 12 12 12 12 13 13 13 13 13 13 13 13 13 13 13 12 12 12 12 12 12 11 11 11 11 11 11 11 11 11 11 11 11 10 10 10 10 10 9 9 9 9 9 9 9 9 9 9 9 9 9 9 9 8 8 8 8 8 7 7 7 7 7 7 7 7 7 7
12 12 12 12 12 12 12 12 12 12 12 12 12 12 12 12 13 13 13 12 12 12 12 12 12 12 12 12 11 11 11 11 11 11 11 11 11 11 11 11 11 10 10 10 10 10 9 9 9 9 9 9 9 9 9 9 9 9 9 9 8 8 8 7 7 7 7 7 7 7 7 7 7 7
12 12 12 12 12 12 12 12 12 12 12 12 12 12 12 12 12 12 12 12 12 12 12 12 12 12 12 12 11 11 11 11 12 12 11 11 11 11 11 11 11 11 10 10 10 10 10 10 10 10 10 10 10 9 9 9 9 9 9 9 8 8 8 7 7 6 6 6 6 6 6 7 6 7
12 12 12 12 12 12 12 12 12 12 12 12 12 12 12 12 11 11 11 12 12 12 12 12 12 12 12 11 11 11 11 11 11 11 11 11 11 10 10 10 10 10 10 10 10 10 10 10 10 10 10 10 10 9 9 9 9 8 8 8 8 8 7 7 6 6 6 6 6 6 6 6 6 6
12 12 12 12 12 12 12 12 12 12 12 12 12 12 12 12 11 11 11 11 11 11 11 11 11 11 11 11 11 11 11 10 11 11 11 11 11 10 10 10 11 10 10 10 10 11 10 10 10 10 10 10 10 10 9 9 9 8 8 8 8 7 7 7 6 6 5 5 6 6 5 5 5 5
12 12 12 11 11 12 12 12 12 12 12 12 12 12 12 11 11 11 11 11 11 11 11 10 10 10 10 10 10 10 10 10 10 10 10 10 10 10 10 10 11 11 10 10 10 10 10 10 10 10 10 10 10 10 10 9 8 8 7 7 7 7 6 6 6 6 5 5 5 5 5 5 5 4
11 11 11 11 11 11 11 11 11 11 11 11 11 11 11 11 11 11 11 11 11 11 10 10 10 10 10 10 10 10 10 10 10 10 10 9 9 9 10 10 10 10 10 10 10 10 10 10 10 10 10 10 10 10 10 9 8 8 7 7 7 6 6 5 5 5 5 5 5 5 4 4 4 4
11 11 11 11 11 11 11 11 11 11 11 11 11 11 11 11 11 11 11 11 11 11 10 10 10 10 10 10 10 10 9 9 9 9 9 9 9 9 9 9 9 9 9 9 9 9 10 10 10 10 10 10 10 10 9 9 8 8 7 7 6 6 5 5 4 4 4 4 4 4 4 4 4 3
11 11 11 11 11 11 11 11 11 11 11 11 11 11 10 10 11 11 11 11 11 10 10 10 10 10 10 10 10 10 9 9 9 9 9 9 9 9 9 9 9 9 9 9 9 9 9 9 9 10 10 9 9 9 9 8 8 7 7 6 6 6 5 4 4 4 4 4 4 4 4 4 4 3
11 11 11 11 11 11 11 11 11 11 11 11 11 10 10 10 10 10 11 11 10 10 10 10 10 10 10 10 9 9 9 9 9 9 9 9 8 8 9 9 9 9 9 9 9 9 9 9 9 9 9 8 8 8 8 7 7 7 6 6 6 6 5 4 4 3 3 3 3 3 3 3 3 3
11 11 11 11 11 11 10 11 11 11 11 10 10 10 10 10 10 10 10 10 10 10 10 10 10 9 9 9 9 9 9 9 9 8 8 8 8 8 8 8 9 9 8 8 8 8 8 8 8 8 8 7 7 7 7 7 6 6 6 6 6 5 5 4 4 3 2 2 2 2 2 2 2 2
11 11 11 11 10 10 10 10 10 10 10 10 10 9 9 9 9 9 9 9 9 9 9 9 9 9 9 9 9 8 8 8 8 8 8 8 8 8 8 8 8 8 8 7 7 7 7 7 7 7 7 7 7 7 7 6 6 6 6 5 5 4 4 4 3 3 2 2 2 2 2 2 1 1
11 10 10 10 10 10 10 10 10 9 9 9 9 9 9 9 9 9 9 9 9 9 9 9 9 8 8 8 8 8 8 8 8 8 8 8 7 7 8 8 7 7 7 7 7 7 7 7 7 6 6 6 6 6 6 6 6 5 5 5 4 4 3 3 2 2 2 2 2 1 1 1 1 1
10 9 9 9 9 9 9 9 9 8 8 8 8 8 8 8 9 8 8 8 8 9 8 8 8 8 8 7 7 7 7 7 7 7 8 7 7 7 7 7 7 7 7 7 7 7 7 7 7 6 6 5 5 5 5 5 5 4 4 4 4 3 2 2 1 1 1 1 1 1 1 0 0 0
9 9 8 8 8 8 8 8 7 7 8 8 8 8 8 8 8 8 8 8 8 8 8 8 8 8 7 7 7 7 7 7 7 7 7 7 7 7 7 7 7 7 7 7 6 6 6 6 6 6 6 5 5 5 5 4 4 4 3 3 2 2 2 1 1 1 1 1 1 0 0 0 0 -0
8 8 8 8 8 7 7 7 7 7 7 7 7 8 8 8 8 8 8 8 8 8 8 8 8 7 7 7 7 6 6 6 6 6 6 6 6 6 6 6 6 6 6 6 6 6 6 5 5 6 5 5 5 5 5 4 4 3 2 2 2 1 1 1 1 1 1 1 0 0 0 0 -0 -0
7 7 7 7 7 7 7 7 7 7 7 7 7 8 8 8 8 8 8 8 8 8 8 8 7 7 7 7 6 6 6 6 6 6 6 6 6 6 6 6 6 6 6 6 5 5 4 4 4 4 4 4 4 4 3 3 2 2 2 1 1 1 1 1 1 1 1 0 0 0 0 -0 -0 -1
7 7 7 7 7 7 7 7 7 7 7 7 7 8 8 8 8 8 8 8 8 7 7 7 7 7 6 6 6 5 5 5 5 5 5 5 5 5 5 5 5 5 5 5 5 4 4 3 3 3 3 3 3 3 3 2 2 1 1 1 1 1 1 1 1 1 0 0 -0 -0 -1 -1 -1 -1
7 7 7 8 7 7 7 7 7 7 7 7 7 7 7 7 7 7 7 7 6 6 6 6 6 6 6 6 5 5 4 4 4 4 4 4 4 4 4 4 4 4 4 4 4 4 4 3 3 3 3 2 2 2 2 2 2 1 1 1 1 1 1 1 0 -0 -0 -0 -1 -1 -1 -1 -1 -1
7 7 7 7 7 7 7 7 7 6 6 6 6 6 6 6 6 6 6 6 5 5 5 5 5 5 5 5 4 4 3 3 3 3 3 3 3 3 3 3 4 3 3 3 3 3 3 3 3 3 2 2 2 2 2 2 1 1 1 0 0 0 -0 -0 -0 -1 -1 -1 -1 -1 -1 -1 -1 -2
7 7 7 6 6 6 6 6 6 6 6 6 5 5 5 5 5 5 4 4 4 4 4 4 4 4 3 3 3 2 2 2 2 2 3 3 3 3 3 3 3 3 3 3 3 3 3 2 2 2 2 1 1 1 1 1 0 -0 -0 -0 -1 -1 -1 -1 -1 -1 -1 -1 -2 -2 -2 -2 -2 -2
6 6 6 6 6 6 6 5 5 5 5 5 4 4 4 4 4 3 3 3 3 3 3 3 3 2 2 2 1 1 1 1 2 2 2 2 2 2 2 2 2 2 2 2 2 2 2 2 2 2 1 1 1 0 0 -0 -1 -1 -1 -1 -1 -1 -1 -1 -1 -1 -2 -2 -2 -2 -2 -2 -2 -2
6 6 6 5 5 5 5 5 4 4 4 4 4 3 3 3 3 3 2 2 2 2 2 2 2 2 1 1 1 1 1 1 1 1 1 1 1 1 1 1 1 1 1 1 1 1 1 1 1 1 0 0 -0 -0 -0 -1 -1 -1 -1 -1 -1 -2 -2 -2 -2 -2 -2 -2 -2 -2 -2 -2 -2 -2
5 5 5 5 4 4 4 4 4 4 3 3 3 3 3 3 2 2 2 2 2 2 1 1 1 1 1 1 1 1 1 1 1 1 1 1 1 1 0 0 0 0 0 0 0 0 -0 -0 -0 -0 -1 -1 -1 -1 -1 -1 -1 -1 -1 -1 -1 -1 -2 -2 -2 -2 -2 -2 -2 -2 -2 -2 -2 -2
4 4 4 4 3 3 3 3 3 3 3 3 3 3 2 2 2 2 2 1 1 1 1 1 1 1 1 1 1 1 1 1 1 0 0 -0 -0 -0 -0 -0 -0 -0 -0 -0 -0 -1 -1 -1 -1 -1 -1 -1 -1 -1 -1 -1 -1 -1 -1 -1 -1 -2 -2 -2 -2 -2 -2 -2 -2 -2 -2 -2 -2 -2
3 3 3 3 3 3 2 2 2 2 2 2 2 2 2 2 2 2 1 1 1 0 0 0 0 0 -0 0 0 0 0 -0 -0 -0 -1 -1 -1 -1 -1 -0 -0 -0 -0 -0 -1 -1 -1 -1 -1 -1 -1 -1 -1 -1 -2 -2 -2 -1 -2 -2 -2 -2 -2 -2 -2 -2 -2 -2 -2 -2 -2 -2 -2 -2
2 2 2 2 2 2 2 2 2 2 2 2 2 2 2 2 1 1 1 0 0 -0 -0 -1 -1 -1 -1 -0 -0 -1 -1 -1 -1 -1 -1 -1 -1 -1 -0 -1 -1 -1 -1 -1 -1 -1 -2 -2 -2 -2 -2 -2 -2 -2 -2 -2 -2 -2 -2 -2 -2 -2 -2 -2 -2 -2 -2 -2 -2 -2 -2 -2 -2 -2
2 2 2 2 2 2 2 2 1 1 1 1 1 1 1 1 1 0 -0 -0 -0 -1 -1 -1 -1 -1 -1 -1 -1 -1 -1 -1 -1 -1 -1 -1 -1 -1 -1 -1 -1 -2 -2 -2 -2 -2 -2 -2 -2 -2 -2 -2 -2 -2 -2 -2 -2 -2 -3 -3 -2 -2 -2 -2 -2 -2 -2 -2 -2 -2 -2 -2 -2 -2
2 2 2 2 1 1 1 1 1 1 1 1 1 1 0 0 -0 -0 -1 -1 -1 -1 -1 -1 -1 -1 -1 -1 -1 -1 -1 -1 -1 -1 -1 -1 -1 -1 -1 -2 -2 -2 -2 -2 -2 -2 -2 -2 -2 -2 -2 -2 -2 -2 -2 -2 -3 -3 -3 -3 -3 -3 -3 -2 -2 -2 -2 -2 -2 -2 -2 -2 -2 -3
1 1 1 1 1 2 2 2 2 1 1 0 -0 -0 -1 -1 -1 -1 -1 -1 -1 -1 -1 -1 -1 -1 -1 -2 -2 -2 -2 -2 -2 -2 -2 -2 -2 -2 -2 -2 -2 -2 -2 -2 -2 -2 -2 -2 -2 -2 -2 -2 -2 -3 -3 -3 -3 -3 -3 -3 -3 -3 -3 -3 -3 -3 -2 -2 -2 -2 -2 -2 -3 -3
1 1 2 2 2 2 2 1 1 1 -0 -1 -1 -1 -1 -1 -1 -1 -1 -1 -1 -1 -1 -1 -1 -1 -2 -2 -2 -2 -2 -2 -2 -2 -2 -2 -2 -2 -2 -3 -3 -2 -2 -2 -2 -2 -2 -2 -2 -3 -3 -3 -3 -3 -3 -3 -3 -3 -3 -3 -3 -3 -3 -3 -3 -3 -3 -3 -3 -2 -2 -2 -2 -2
1 1 1 1 1 1 1 1 1 0 0 -0 -1 -2 -2 -2 -2 -2 -2 -2 -1 -1 -2 -2 -2 -2 -2 -2 -2 -2 -2 -2 -2 -2 -2 -3 -3 -3 -3 -3 -2 -3 -3 -3 -3 -3 -3 -3 -3 -3 -3 -3 -3 -3 -3 -3 -3 -3 -3 -3 -3 -3 -3 -3 -3 -3 -3 -3 -3 -3 -3 -3 -3 -2
1 1 1 1 1 1 0 0 1 0 0 -0 -1 -2 -3 -2 -2 -2 -2 -2 -2 -2 -2 -3 -3 -3 -3 -3 -3 -3 -2 -2 -3 -3 -3 -3 -3 -3 -3 -2 -2 -3 -3 -3 -3 -3 -3 -3 -3 -3 -3 -3 -3 -3 -3 -3 -3 -3 -3 -3 -3 -3 -3 -3 -3 -3 -3 -3 -3 -3 -3 -3 -3 -3
0 0 0 0 0 0 0 0 0 0 0 -0 -2 -3 -3 -2 -2 -2 -2 -2 -2 -2 -3 -3 -3 -4 -3 -3 -3 -3 -3 -3 -3 -3 -3 -3 -3 -3 -2 -2 -2 -2 -3 -3 -3 -3 -3 -3 -3 -3 -3 -3 -3 -3 -4 -4 -4 -4 -3 -3 -3 -3 -3 -3 -3 -3 -3 -3 -3 -3 -3 -3 -3 -3
-0 -0 -0 -0 -0 -0 -0 -0 -0 -0 -0 -1 -1 -2 -3 -2 -2 -2 -3 -3 -3 -3 -3 -3 -3 -3 -3 -3 -3 -3 -3 -3 -3 -3 -3 -3 -3 -3 -3 -3 -3 -3 -3 -3 -3 -3 -3 -3 -3 -3 -3 -3 -3 -4 -4 -4 -4 -4 -3 -3 -3 -3 -3 -3 -3 -3 -3 -3 -3 -3 -3 -3 -3 -3
Height
1556 1556 1557 1557 1558 1559 1560 1560 1561 1561 1562 1562 1562 1563 1563 1563 1564 1565 1567 1568 1569 1570 1571 1571 1571 1572 1572 1573 1574 1575 1575 1576 1576 1576 1577 1578 1578 1579 1579 1580 1581 1581 1581 1582 1582 1582 1582 1582 1583 1583 1583 1583 1583 1583 1583 1583 1583 1583 1583 1583 1583 1583 1582 1582 1582 1582 1581 1581 1581 1580 1579 1579 1578 1577
1555 1556 1556 1557 1557 1558 1559 1560 1560 1561 1561 1562 1562 1563 1564 1564 1564 1564 1565 1567 1568 1569 1570 1571 1572 1572 1572 1573 1574 1575 1576 1576 1577 1577 1578 1578 1579 1579 1580 1580 1581 1581 1582 1582 1582 1582 1582 1582 1583 1583 1583 1583 1583 1583 1583 1583 1583 1583 1583 1583 1583 1582 1582 1582 1582 1581 1581 1580 1580 1579 1579 1578 1578 1577
1555 1555 1556 1556 1557 1558 1559 1559 1560 1561 1561 1561 1562 1563 1564 1564 1565 1565 1566 1567 1568 1569 1570 1571 1572 1572 1573 1573 1574 1575 1576 1576 1577 1577 1578 1578 1579 1579 1580 1580 1581 1581 1582 1582 1582 1582 1583 1583 1583 1583 1583 1583 1583 1583 1583 1583 1583 1583 1583 1583 1582 1582 1582 1581 1581 1580 1580 1579 1579 1579 1578 1577 1577 1576
1554 1555 1556 1556 1557 1558 1559 1559 1560 1561 1561 1562 1562 1563 1564 1565 1566 1566 1567 1568 1568 1569 1571 1572 1572 1572 1573 1573 1574 1575 1575 1576 1577 1577 1578 1578 1579 1580 1580 1580 1581 1581 1582 1582 1582 1583 1583 1583 1583 1583 1583 1583 1583 1583 1583 1583 1583 1583 1582 1582 1582 1581 1581 1581 1580 1580 1579 1578 1578 1577 1577 1576 1575 1574
1554 1555 1556 1557 1558 1558 1559 1560 1560 1561 1562 1562 1563 1563 1564 1565 1566 1567 1568 1569 1569 1570 1571 1572 1572 1572 1573 1573 1573 1574 1575 1575 1576 1577 1578 1578 1579 1579 1580 1580 1581 1581 1582 1582 1582 1582 1582 1582 1583 1583 1583 1583 1582 1582 1582 1582 1583 1582 1582 1581 1581 1580 1580 1580 1579 1579 1578 1577 1577 1576 1575 1574 1573 1572
1555 1555 1556 1557 1558 1558 1559 1559 1560 1561 1562 1562 1563 1563 1564 1565 1566 1568 1569 1569 1570 1570 1570 1571 1571 1572 1572 1573 1573 1574 1575 1575 1576 1577 1577 1578 1578 1579 1579 1580 1580 1580 1581 1581 1582 1582 1582 1582 1582 1582 1582 1582 1582 1582 1582 1582 1582 1582 1582 1581 1580 1580 1579 1579 1578 1577 1577 1576 1575 1575 1574 1573 1572 1571
1555 1556 1556 1557 1558 1558 1559 1560 1560 1561 1562 1563 1563 1564 1564 1566 1567 1568 1569 1569 1570 1570 1570 1571 1571 1571 1572 1573 1573 1574 1575 1575 1576 1576 1577 1577 1577 1578 1578 1579 1580 1580 1580 1581 1581 1581 1581 1581 1581 1581 1582 1582 1582 1581 1581 1580 1580 1581 1581 1580 1580 1579 1578 1577 1577 1576 1576 1575 1574 1573 1572 1571 1570 1569
1555 1556 1556 1557 1558 1559 1560 1560 1561 1561 1562 1562 1563 1564 1564 1565 1566 1567 1568 1569 1569 1569 1570 1570 1570 1571 1572 1573 1573 1574 1574 1575 1575 1576 1576 1576 1577 1577 1578 1578 1579 1579 1580 1580 1580 1580 1580 1580 1580 1580 1580 1581 1581 1581 1580 1579 1579 1579 1579 1579 1578 1578 1577 1577 1576 1575 1574 1574 1573 1572 1571 1570 1569 1567
1555 1556 1557 1557 1558 1559 1560 1561 1561 1561 1561 1562 1562 1563 1564 1564 1565 1566 1567 1568 1568 1568 1569 1569 1570 1571 1572 1572 1573 1573 1574 1574 1574 1575 1575 1575 1576 1576 1576 1577 1577 1578 1578 1578 1578 1578 1578 1579 1579 1579 1579 1579 1580 1579 1579 1578 1578 1577 1577 1577 1577 1576 1576 1575 1575 1574 1573 1572 1571 1570 1569 1568 1566 1565
1555 1556 1557 1557 1559 1559 1560 1561 1561 1562 1562 1562 1563 1563 1563 1564 1565 1566 1566 1566 1567 1568 1569 1569 1569 1570 1570 1571 1571 1572 1573 1573 1573 1574 1574 1574 1574 1575 1575 1575 1575 1576 1576 1576 1576 1576 1576 1577 1577 1577 1577 1577 1578 1578 1577 1577 1576 1576 1576 1575 1575 1575 1574 1574 1573 1572 1571 1570 1569 1568 1567 1566 1564 1563
1555 1556 1557 1557 1558 1559 1560 1560 1561 1562 1562 1563 1563 1563 1564 1564 1564 1565 1565 1566 1566 1567 1568 1568 1568 1569 1569 1570 1570 1571 1572 1572 1573 1573 1573 1573 1573 1573 1572 1573 1573 1573 1574 1574 1574 1574 1575 1575 1575 1575 1575 1575 1575 1575 1575 1574 1574 1574 1574 1573 1573 1573 1572 1572 1571 1570 1569 1568 1567 1566 1565 1563 1562 1561
1555 1556 1556 1557 1558 1559 1559 1560 1561 1562 1563 1563 1563 1563 1564 1564 1564 1564 1565 1565 1566 1567 1567 1567 1567 1568 1568 1568 1569 1570 1570 1570 1571 1571 1571 1571 1571 1571 1571 1571 1571 1571 1571 1571 1571 1572 1572 1572 1572 1572 1572 1572 1572 1572 1572 1572 1572 1572 1571 1571 1571 1570 1570 1569 1569 1568 1567 1566 1565 1564 1562 1561 1560 1558
1555 1556 1557 1557 1558 1558 1559 1560 1561 1562 1562 1563 1563 1563 1563 1564 1565 1565 1565 1566 1566 1566 1566 1566 1567 1567 1567 1567 1567 1567 1567 1568 1569 1569 1569 1569 1569 1569 1569 1569 1569 1569 1569 1569 1569 1569 1569 1569 1569 1569 1569 1569 1569 1569 1569 1569 1569 1569 1569 1568 1568 1567 1567 1567 1566 1566 1565 1564 1563 1561 1560 1559 1558 1556
1556 1557 1557 1558 1558 1559 1559 1560 1561 1561 1562 1562 1562 1563 1563 1563 1564 1565 1565 1566 1566 1566 1566 1566 1566 1566 1565 1566 1565 1565 1566 1567 1567 1567 1567 1567 1568 1568 1567 1566 1567 1567 1567 1567 1566 1566 1566 1566 1566 1566 1566 1566 1566 1566 1566 1566 1566 1566 1566 1566 1565 1565 1565 1564 1564 1563 1563 1562 1561 1559 1558 1557 1556 1554
1556 1557 1558 1558 1559 1560 1560 1561 1561 1561 1561 1562 1562 1562 1562 1563 1563 1564 1564 1565 1565 1566 1566 1566 1566 1566 1565 1565 1565 1565 1565 1565 1566 1566 1565 1565 1565 1566 1565 1563 1564 1564 1564 1564 1563 1562 1563 1563 1562 1562 1562 1562 1562 1562 1563 1564 1564 1564 1563 1563 1563 1562 1562 1562 1561 1561 1560 1560 1558 1557 1556 1555 1554 1553
1556 1557 1558 1558 1559 1560 1560 1561 1561 1561 1561 1561 1561 1562 1562 1562 1563 1563 1563 1564 1564 1565 1565 1565 1565 1565 1564 1564 1564 1564 1564 1564 1564 1564 1563 1563 1562 1562 1562 1560 1560 1561 1562 1561 1559 1559 1560 1560 1559 1558 1558 1559 1559 1559 1559 1560 1560 1560 1560 1560 1559 1560 1560 1560 1559 1558 1558 1556 1555 1555 1554 1553 1552 1551
1556 1557 1557 1558 1559 1560 1560 1560 1560 1560 1560 1560 1560 1561 1561 1561 1561 1561 1561 1562 1562 1563 1564 1564 1564 1564 1563 1562 1562 1562 1562 1562 1562 1561 1561 1560 1560 1559 1558 1557 1557 1559 1559 1558 1556 1555 1556 1557 1555 1554 1555 1555 1555 1555 1556 1556 1556 1556 1555 1555 1555 1555 1556 1557 1556 1556 1555 1553 1552 1552 1551 1551 1550 1550
1555 1556 1557 1557 1558 1559 1558 1558 1559 1558 1558 1559 1559 1559 1559 1559 1560 1560 1560 1560 1560 1561 1561 1562 1562 1562 1561 1561 1561 1560 1560 1560 1560 1559 1558 1558 1557 1556 1555 1554 1555 1556 1556 1555 1553 1550 1551 1552 1551 1549 1551 1551 1551 1551 1552 1552 1552 1551 1550 1550 1550 1551 1552 1552 1553 1553 1553 1551 1550 1549 1549 1548 1548 1548
1555 1555 1556 1556 1557 1557 1557 1557 1557 1557 1557 1557 1557 1557 1557 1557 1558 1558 1558 1558 1558 1559 1559 1559 1560 1560 1559 1559 1559 1558 1558 1558 1558 1557 1556 1555 1554 1553 1552 1551 1551 1551 1551 1551 1549 1546 1545 1547 1546 1545 1546 1546 1545 1546 1547 1547 1548 1547 1546 1546 1546 1547 1548 1549 1550 1550 1550 1549 1548 1547 1547 1547 1547 1546
1554 1554 1555 1555 1556 1556 1556 1556 1556 1555 1555 1555 1555 1556 1556 1556 1556 1556 1556 1556 1557 1557 1557 1557 1557 1557 1557 1557 1556 1556 1556 1555 1555 1554 1553 1552 1551 1549 1548 1548 1548 1547 1546 1546 1546 1544 1542 1543 1543 1543 1542 1541 1541 1542 1543 1543 1544 1543 1542 1542 1543 1544 1545 1546 1547 1547 1547 1547 1546 1545 1545 1545 1545 1545
1553 1554 1554 1554 1555 1555 1555 1555 1554 1554 1554 1554 1554 1554 1554 1554 1554 1554 1554 1554 1554 1555 1555 1555 1555 1555 1554 1554 1553 1553 1553 1553 1552 1551 1550 1550 1549 1546 1545 1545 1545 1544 1542 1542 1543 1542 1540 1540 1540 1541 1540 1540 1540 1540 1540 1541 1541 1540 1539 1540 1540 1540 1541 1543 1544 1545 1545 1544 1543 1543 1543 1543 1543 1543
1552 1552 1553 1553 1553 1553 1553 1553 1553 1552 1552 1552 1552 1553 1553 1552 1552 1552 1552 1552 1552 1552 1552 1552 1552 1551 1551 1551 1550 1550 1550 1550 1549 1548 1548 1547 1547 1545 1544 1543 1543 1542 1541 1541 1541 1540 1539 1538 1538 1539 1539 1539 1538 1538 1538 1538 1538 1537 1537 1537 1537 1538 1539 1541 1542 1543 1542 1542 1541 1541 1541 1542 1542 1542
1550 1551 1551 1551 1550 1551 1551 1551 1551 1551 1551 1550 1550 1551 1551 1551 1551 1551 1550 1550 1550 1550 1549 1549 1549 1549 1548 1548 1548 1547 1547 1548 1547 1546 1545 1545 1545 1544 1543 1542 1542 1541 1541 1540 1539 1539 1538 1538 1537 1537 1537 1536 1535 1535 1534 1534 1534 1534 1534 1535 1536 1537 1539 1540 1541 1541 1540 1540 1540 1540 1540 1540 1540 1540
1548 1548 1549 1549 1549 1549 1549 1549 1549 1549 1549 1549 1549 1549 1549 1549 1549 1549 1548 1548 1548 1547 1547 1547 1547 1547 1546 1546 1545 1545 1545 1545 1545 1544 1543 1542 1542 1541 1541 1541 1540 1540 1539 1539 1538 1538 1537 1536 1536 1535 1534 1534 1533 1532 1532 1532 1532 1532 1533 1534 1535 1537 1538 1538 1539 1539 1538 1538 1538 1538 1538 1539 1538 1537
1546 1546 1546 1547 1547 1547 1547 1547 1547 1548 1548 1548 1548 1548 1548 1548 1547 1547 1547 1546 1546 1546 1546 1545 1545 1544 1544 1544 1543 1543 1542 1542 1542 1541 1541 1541 1540 1539 1539 1538 1538 1537 1537 1537 1537 1536 1535 1534 1534 1533 1533 1532 1531 1531 1531 1531 1532 1532 1533 1534 1535 1535 1536 1536 1536 1537 1537 1537 1537 1537 1537 1537 1536 1535
1544 1545 1545 1545 1546 1546 1546 1546 1546 1546 1546 1546 1546 1546 1546 1546 1546 1545 1545 1545 1545 1544 1544 1543 1543 1542 1542 1541 1541 1540 1540 1540 1539 1539 1539 1539 1538 1538 1537 1536 1535 1535 1535 1534 1534 1534 1533 1532 1532 1531 1531 1530 1530 1530 1530 1530 1530 1531 1531 1532 1532 1533 1534 1534 1534 1535 1535 1535 1535 1535 1535 1535 1534 1533
1544 1544 1544 1545 1545 1545 1545 1545 1545 1544 1544 1544 1544 1544 1544 1544 1544 1544 1543 1543 1543 1542 1542 1541 1540 1540 1539 1538 1538 1537 1537 1537 1537 1536 1536 1536 1536 1536 1535 1535 1534 1533 1533 1533 1532 1532 1531 1531 1531 1530 1529 1529 1529 1529 1529 1529 1529 1529 1530 1530 1530 1531 1532 1533 1533 1533 1533 1533 1533 1533 1533 1532 1532 1531
1543 1543 1544 1544 1544 1544 1544 1543 1543 1543 1543 1543 1543 1543 1543 1542 1542 1541 1541 1541 1540 1540 1539 1538 1538 1537 1537 1536 1536 1535 1535 1535 1534 1534 1534 1534 1534 1534 1534 1534 1533 1533 1532 1532 1531 1531 1530 1530 1530 1530 1530 1529 1529 1529 1528 1528 1528 1528 1529 1529 1529 1530 1530 1531 1530 1530 1530 1531 1530 1530 1530 1530 1530 1529
1542 1542 1542 1542 1542 1542 1542 1542 1542 1541 1541 1541 1541 1541 1541 1540 1540 1539 1539 1539 1538 1538 1537 1536 1536 1535 1534 1534 1534 1533 1533 1533 1533 1533 1533 1533 1533 1533 1533 1532 1532 1532 1532 1531 1531 1530 1530 1529 1529 1530 1530 1530 1530 1529 1528 1528 1528 1528 1528 1528 1528 1528 1528 1528 1528 1528 1528 1528 1528 1528 1528 1527 1527 1526
1540 1540 1540 1540 1541 1541 1541 1541 1540 1540 1540 1540 1540 1539 1539 1539 1539 1539 1538 1538 1537 1537 1536 1535 1534 1533 1532 1532 1531 1531 1531 1532 1532 1532 1532 1532 1532 1532 1531 1531 1531 1531 1531 1530 1530 1529 1529 1529 1528 1528 1529 1529 1529 1528 1528 1527 1527 1526 1526 1526 1526 1525 1525 1525 1525 1526 1526 1526 1526 1526 1525 1525 1524 1523
1539 1539 1539 1539 1540 1540 1540 1540 1539 1539 1539 1539 1539 1539 1538 1538 1538 1538 1538 1537 1537 1536 1535 1534 1533 1532 1531 1530 1530 1530 1530 1530 1530 1530 1531 1531 1531 1530 1530 1530 1530 1529 1529 1529 1528 1528 1528 1527 1527 1527 1527 1527 1527 1526 1526 1526 1525 1525 1524 1524 1524 1523 1523 1523 1523 1524 1524 1524 1524 1523 1523 1522 1521 1521
1538 1538 1538 1539 1539 1539 1539 1539 1539 1539 1539 1539 1539 1539 1538 1538 1538 1537 1537 1536 1536 1535 1534 1533 1532 1531 1530 1530 1529 1529 1529 1529 1529 1529 1529 1529 1529 1529 1529 1529 1528 1528 1527 1527 1527 1526 1526 1526 1526 1525 1525 1525 1524 1524 1524 1524 1524 1523 1523 1523 1523 1523 1523 1522 1522 1522 1522 1522 1522 1521 1521 1520 1520 1519
1537 1538 1538 1538 1538 1538 1538 1538 1538 1538 1538 1539 1538 1538 1538 1538 1537 1537 1536 1536 1535 1534 1534 1533 1532 1531 1530 1529 1529 1529 1528 1529 1528 1528 1528 1528 1528 1528 1528 1527 1527 1527 1526 1526 1526 1525 1525 1525 1525 1524 1524 1523 1523 1523 1523 1523 1523 1523 1522 1522 1522 1522 1522 1521 1521 1521 1521 1521 1520 1519 1519 1519 1518 1518
1536 1537 1537 1537 1537 1538 1538 1538 1538 1538 1538 1538 1538 1537 1537 1537 1536 1535 1535 1534 1534 1533 1533 1532 1531 1531 1530 1529 1529 1528 1528 1528 1528 1527 1527 1527 1527 1527 1527 1527 1526 1526 1526 1525 1525 1524 1524 1524 1524 1524 1523 1523 1522 1522 1522 1522 1522 1522 1521 1521 1521 1521 1521 1520 1520 1520 1520 1519 1518 1518 1518 1518 1517 1516
1536 1536 1536 1537 1537 1537 1537 1538 1538 1538 1537 1537 1537 1536 1535 1535 1534 1534 1534 1533 1533 1532 1532 1531 1531 1530 1530 1529 1528 1528 1527 1527 1527 1527 1527 1527 1526 1526 1526 1526 1526 1525 1524 1524 1524 1523 1523 1523 1523 1523 1523 1522 1522 1521 1521 1521 1521 1521 1520 1520 1520 1520 1520 1519 1519 1518 1518 1517 1517 1516 1516 1516 1515 1514
1536 1536 1536 1537 1537 1537 1537 1537 1536 1536 1536 1535 1535 1534 1534 1533 1533 1533 1532 1532 1532 1531 1531 1530 1530 1529 1529 1528 1528 1527 1527 1527 1527 1526 1526 1526 1526 1526 1525 1525 1525 1524 1524 1523 1523 1522 1522 1522 1522 1522 1522 1521 1521 1521 1520 1520 1520 1520 1520 1519 1519 1519 1518 1518 1517 1517 1516 1516 1516 1515 1514 1514 1513 1512
1536 1536 1536 1536 1536 1536 1535 1535 1535 1534 1534 1533 1533 1532 1532 1532 1531 1531 1531 1531 1531 1530 1530 1529 1529 1528 1528 1527 1527 1527 1526 1526 1526 1526 1526 1525 1525 1525 1524 1524 1524 1523 1523 1522 1522 1522 1521 1522 1522 1521 1521 1520 1520 1520 1520 1520 1520 1520 1519 1519 1518 1518 1517 1517 1516 1515 1515 1514 1514 1513 1512 1512 1511 1510
1535 1535 1535 1535 1535 1535 1534 1534 1533 1533 1533 1532 1531 1531 1531 1530 1530 1530 1530 1530 1530 1529 1529 1528 1528 1527 1527 1526 1526 1526 1526 1526 1526 1525 1525 1525 1524 1524 1524 1523 1523 1522 1522 1522 1522 1521 1521 1522 1522 1521 1520 1520 1519 1520 1520 1520 1519 1519 1518 1517 1517 1516 1516 1515 1514 1513 1513 1512 1512 1512 1511 1510 1509 1508
1535 1535 1535 1535 1534 1534 1533 1533 1533 1532 1532 1531 1530 1530 1530 1530 1529 1529 1529 1529 1529 1528 1528 1528 1527 1526 1526 1526 1525 1526 1526 1525 1525 1525 1525 1524 1524 1524 1524 1523 1523 1523 1523 1522 1522 1522 1521 1521 1521 1521 1520 1520 1519 1519 1519 1519 1519 1518 1517 1516 1516 1515 1514 1513 1512 1512 1511 1511 1511 1510 1509 1508 1507 1506
1535 1535 1535 1534 1534 1534 1533 1533 1533 1532 1532 1531 1530 1530 1530 1529 1529 1529 1528 1528 1528 1528 1527 1527 1527 1526 1526 1526 1525 1526 1526 1525 1525 1525 1525 1524 1524 1524 1524 1524 1523 1523 1523 1523 1522 1522 1522 1521 1521 1521 1521 1520 1520 1520 1519 1518 1518 1517 1516 1516 1515 1514 1513 1512 1511 1510 1510 1509 1509 1508 1508 1507 1506 1505
1536 1536 1535 1535 1535 1535 1534 1533 1533 1532 1531 1531 1530 1530 1530 1529 1529 1529 1529 1529 1528 1528 1528 1527 1527 1527 1526 1526 1526 1526 1526 1526 1526 1526 1525 1525 1525 1525 1524 1524 1524 1523 1523 1523 1523 1522 1522 1522 1522 1521 1521 1520 1520 1519 1519 1518 1517 1516 1515 1515 1514 1512 1511 1510 1510 1509 1509 1508 1507 1506 1506 1505 1504 1503
1537 1537 1536 1536 1536 1535 1534 1534 1533 1532 1531 1531 1530 1530 1530 1530 1530 1530 1530 1530 1529 1529 1529 1528 1528 1528 1527 1527 1527 1527 1527 1527 1527 1526 1526 1526 1526 1525 1525 1525 1524 1524 1523 1523 1523 1523 1523 1522 1522 1521 1521 1520 1520 1519 1518 1517 1516 1515 1514 1513 1512 1511 1510 1509 1508 1508 1507 1507 1506 1505 1504 1504 1503 1501
1538 1537 1537 1536 1536 1535 1535 1534 1533 1533 1532 1532 1531 1531 1531 1531 1531 1531 1531 1530 1530 1530 1529 1529 1529 1529 1529 1528 1528 1528 1528 1528 1527 1527 1527 1527 1527 1526 1526 1525 1525 1524 1524 1523 1523 1523 1523 1522 1522 1521 1521 1520 1519 1518 1517 1516 1515 1514 1513 1511 1510 1509 1508 1508 1507 1506 1506 1505 1505 1504 1503 1503 1502 1501
1538 1538 1537 1537 1536 1536 1535 1535 1534 1534 1533 1533 1532 1532 1532 1532 1532 1532 1531 1531 1531 1530 1530 1530 1530 1530 1530 1530 1530 1529 1529 1529 1528 1528 1528 1528 1527 1527 1526 1526 1525 1525 1524 1524 1524 1523 1523 1522 1522 1521 1520 1519 1518 1518 1517 1516 1515 1513 1512 1511 1509 1508 1507 1506 1506 1505 1505 1504 1504 1503 1503 1502 1501 1500
1539 1538 1538 1537 1537 1537 1536 1536 1535 1535 1534 1534 1533 1533 1533 1533 1533 1532 1532 1532 1532 1531 1531 1531 1531 1531 1531 1530 1530 1530 1530 1530 1529 1529 1528 1528 1527 1527 1527 1526 1526 1525 1525 1525 1524 1524 1523 1522 1521 1521 1520 1519 1518 1517 1516 1515 1514 1513 1512 1510 1509 1508 1506 1506 1505 1505 1505 1504 1503 1502 1502 1501 1500 1499
Wind_Speed
10 11 12 12 13 14 14 13 13 14 14 13 14 16 15 11 11 15 17 16 14 12 11 9 8 9 9 8 7 8 9 10 10 10 10 10 10 10 10 10 11 11 12 12 11 11 10 9 9 8 7 6 5 4 3 3 4 4 5 6 6 5 5 5 4 5 5 5 5 6 6 7 8 8
11 11 11 12 14 14 13 13 12 13 14 13 13 14 13 12 10 9 13 16 14 12 11 9 7 8 9 9 8 8 9 9 9 10 9 10 10 10 11 11 12 11 11 11 11 11 10 10 9 8 6 5 5 4 5 5 5 5 6 6 7 6 6 6 5 5 6 6 6 7 7 8 9 9
12 12 11 12 14 13 13 14 13 13 14 13 14 13 12 13 11 9 9 13 12 11 10 7 7 7 8 10 9 9 9 9 9 10 10 10 11 11 12 12 12 12 12 12 12 11 11 10 9 8 7 6 6 6 6 6 6 6 6 6 6 6 6 6 6 6 7 7 8 8 9 9 10 11
11 12 11 12 13 13 14 14 14 14 14 14 13 13 12 13 11 10 9 8 7 8 7 6 6 7 8 10 10 11 11 10 11 11 11 11 12 12 12 12 13 13 13 13 12 12 11 10 9 8 8 7 7 7 8 7 7 6 6 6 5 6 6 6 7 7 8 8 9 9 10 11 12 12
11 11 11 12 12 12 14 14 13 13 13 14 13 13 13 13 12 11 10 8 6 7 9 8 7 8 9 9 11 12 12 12 12 12 13 13 12 12 13 13 13 14 14 14 13 12 12 11 10 9 9 8 8 8 8 8 8 7 7 6 6 7 7 7 8 8 9 9 10 10 11 12 13 13
11 11 11 12 12 13 15 14 13 12 12 12 12 13 14 13 13 13 12 11 10 8 9 11 11 11 10 10 10 12 12 11 11 12 13 13 13 13 13 14 15 15 15 15 14 13 13 12 11 11 10 10 9 9 9 9 9 8 8 8 8 8 8 9 9 9 10 10 11 12 12 13 13 14
11 12 11 12 13 13 14 13 13 12 11 10 11 13 15 15 16 16 15 15 14 12 10 11 12 14 12 9 9 10 11 10 11 12 12 12 13 13 14 15 16 16 16 16 15 15 14 14 13 12 12 11 10 10 9 9 9 9 10 10 10 11 10 10 10 10 10 11 12 13 13 14 15 15
10 12 11 12 13 13 12 12 12 11 10 11 13 14 16 17 18 18 17 16 15 15 13 10 11 14 12 8 7 9 10 9 9 10 11 12 12 13 15 16 17 18 18 17 17 17 16 16 15 14 14 12 11 11 11 10 10 11 11 12 13 13 13 12 11 10 11 12 13 14 15 15 16 16
9 11 11 11 13 13 12 10 9 8 8 10 13 14 15 16 17 17 17 18 18 17 13 11 11 14 14 10 9 11 11 9 9 9 10 11 13 14 16 17 19 20 20 19 19 19 19 18 17 16 15 14 13 13 13 12 12 13 14 14 15 15 15 14 12 12 13 14 15 15 16 16 16 17
9 10 11 11 14 13 10 8 7 5 5 7 9 11 13 14 16 17 17 18 20 18 12 10 11 14 15 13 11 10 11 11 10 10 11 12 13 15 17 19 21 22 22 22 21 21 20 19 18 17 16 16 15 15 15 15 15 16 17 17 17 18 18 16 14 13 14 15 16 16 17 17 17 18
11 11 12 14 15 12 8 7 7 6 6 6 6 7 8 9 10 13 14 15 18 16 11 10 12 12 13 14 13 11 11 13 14 14 15 15 15 16 17 19 21 22 24 24 23 23 22 21 21 20 19 18 18 19 19 19 19 19 20 20 21 21 20 18 16 15 15 16 17 17 17 17 18 19
12 13 15 16 15 12 10 9 7 7 7 7 6 6 5 6 7 9 11 13 14 13 12 13 13 13 14 15 16 16 16 18 18 18 18 19 18 18 17 17 18 22 24 24 25 25 25 24 23 22 22 21 21 22 22 23 22 22 22 22 23 23 22 20 17 16 16 17 17 18 18 18 19 20
12 13 16 16 14 12 12 10 8 7 8 8 7 6 5 6 7 8 9 11 12 13 14 15 15 15 17 18 19 21 21 20 18 18 20 20 20 20 20 19 19 21 23 25 26 26 26 25 24 24 25 24 24 25 25 24 24 23 23 23 23 23 22 20 18 17 17 17 18 18 19 19 20 21
12 12 13 13 12 11 11 10 9 8 8 9 10 9 8 7 7 7 8 9 10 11 13 15 17 19 21 22 23 24 24 23 22 22 22 22 21 22 24 24 22 22 24 25 26 26 27 27 27 28 28 27 27 28 27 26 24 24 24 23 21 21 21 20 19 18 17 18 18 19 19 20 21 22
12 11 11 11 10 10 9 10 10 10 10 10 10 11 12 11 10 9 9 9 10 11 11 13 15 19 21 23 25 25 24 24 24 24 24 24 24 25 27 27 26 25 25 27 28 27 26 28 30 30 30 30 30 31 30 28 26 24 23 21 20 20 21 21 20 18 17 18 18 19 20 20 21 22
10 9 9 9 9 9 8 9 10 10 11 12 12 12 13 13 13 13 12 11 11 12 13 14 14 16 17 18 20 23 23 23 23 22 22 23 25 27 29 31 30 27 26 29 31 31 29 30 33 33 32 32 32 32 32 30 26 23 21 21 22 21 21 22 20 18 17 17 17 18 19 21 21 22
10 7 6 6 6 6 7 8 9 9 9 11 12 13 14 14 15 16 15 14 12 11 13 15 15 15 17 16 15 16 18 21 24 24 24 25 25 26 29 31 30 28 28 31 34 35 33 33 35 37 36 35 35 35 35 33 29 26 25 24 23 22 21 22 21 19 17 16 16 18 19 20 21 21
7 5 4 4 4 4 5 6 6 7 8 9 11 11 13 14 15 17 17 17 15 12 12 13 14 15 17 17 15 14 15 19 22 25 27 28 29 30 30 29 27 27 29 31 33 36 35 33 35 37 35 36 37 36 36 36 34 31 29 27 25 24 23 23 22 19 17 15 15 17 18 20 21 21
3 4 5 5 6 6 6 6 7 8 9 11 11 11 11 12 13 14 16 17 15 13 12 14 15 15 17 18 18 17 17 18 20 22 24 25 27 29 30 29 30 30 32 33 34 37 38 36 36 36 34 35 37 36 37 38 36 34 31 28 27 27 25 24 23 19 16 15 15 16 17 19 21 22
4 5 7 7 8 8 8 9 10 10 10 11 11 11 11 11 12 13 14 15 14 14 14 15 16 18 19 19 19 19 19 19 19 21 23 24 25 26 27 28 30 31 33 33 31 32 34 34 33 34 34 34 33 33 34 33 34 34 32 30 31 30 26 23 23 20 17 16 15 15 16 18 20 20
10 11 11 10 9 11 12 12 11 10 11 11 11 12 11 12 13 14 15 15 15 15 17 18 19 20 20 20 19 18 17 18 19 21 22 23 24 26 26 27 29 29 29 27 24 25 28 28 27 27 29 28 27 28 28 26 28 30 29 29 31 29 23 21 21 18 15 14 13 13 14 15 17 18
14 14 13 12 11 12 13 13 12 11 11 12 11 11 11 11 13 15 16 16 16 17 18 19 19 18 17 16 15 15 14 15 17 20 21 20 21 22 24 26 28 26 24 22 21 22 24 24 23 22 24 25 26 27 28 28 30 30 27 26 26 22 17 16 15 12 11 10 10 11 11 13 16 19
13 12 11 11 11 12 12 13 12 12 12 12 11 11 11 12 13 14 15 16 16 16 16 15 15 14 13 12 12 13 13 13 15 16 17 17 17 18 20 23 24 22 21 20 20 20 20 20 21 21 21 22 24 25 27 29 28 25 22 20 18 16 15 13 11 9 9 9 10 10 11 13 17 20
11 10 9 10 10 11 12 12 12 11 11 11 11 10 10 10 11 11 12 12 13 12 12 12 12 12 12 12 13 13 13 12 12 13 13 13 15 16 18 19 19 18 18 17 17 17 16 16 18 19 19 21 21 20 19 20 19 15 12 12 12 12 12 11 9 8 8 9 11 12 12 14 18 20
10 10 10 9 9 10 10 9 9 8 8 8 8 8 8 8 9 9 10 10 11 12 13 14 14 14 14 13 13 14 14 13 13 13 12 12 13 14 15 15 15 14 14 14 14 14 15 16 18 18 19 20 20 17 15 14 14 11 8 8 9 10 10 11 10 8 8 9 11 13 15 16 18 21
9 9 8 7 7 6 6 6 6 6 7 7 7 8 8 9 11 12 13 13 14 15 16 16 17 17 16 15 14 14 14 15 15 15 15 15 14 14 14 15 14 14 15 15 15 15 15 16 17 17 17 17 17 16 14 13 13 12 11 11 10 10 11 12 12 11 11 11 13 16 18 18 18 19
7 7 6 6 5 5 6 7 8 9 10 11 12 12 13 14 15 16 16 17 18 18 18 18 18 18 18 17 17 16 15 15 16 17 17 17 16 16 16 16 16 16 17 17 17 15 13 12 13 14 13 11 12 13 12 11 11 12 12 12 12 13 14 14 15 15 16 16 17 18 19 18 17 17
7 7 7 8 8 9 10 10 11 11 12 13 13 14 15 15 15 16 16 17 17 18 18 18 18 18 18 17 16 16 16 15 14 15 15 16 17 17 18 17 17 16 16 16 16 14 12 10 10 10 9 8 8 10 12 12 12 12 10 11 13 15 16 19 21 22 22 21 17 16 16 16 15 16
8 9 9 10 11 11 11 11 10 9 9 10 10 11 12 12 12 13 13 13 14 14 14 14 15 17 18 18 17 17 15 14 13 12 13 14 16 17 17 17 17 15 14 13 13 12 12 11 11 11 11 10 9 11 13 15 15 15 14 15 17 19 21 23 24 23 21 17 14 13 14 14 14 16
8 8 8 8 8 8 8 8 8 8 8 8 8 8 8 9 9 10 11 11 11 10 11 13 14 14 14 15 15 14 13 12 12 11 11 12 13 15 15 16 16 16 14 12 11 11 11 11 12 12 13 13 14 15 15 15 15 15 16 17 17 17 19 20 19 17 15 13 12 13 13 14 14 15
5 6 6 7 7 7 7 8 8 8 7 7 7 7 7 8 9 10 11 11 10 11 13 16 16 14 12 11 10 10 9 9 10 10 10 11 12 14 14 15 15 14 13 12 11 11 10 11 12 13 14 14 14 15 15 14 12 12 13 13 14 14 15 15 15 15 14 13 12 12 13 13 14 15
5 6 6 7 7 7 8 8 8 7 7 6 5 5 6 7 8 9 10 10 11 12 15 16 15 13 11 11 9 8 7 7 7 8 9 10 11 12 12 12 12 11 11 11 12 12 12 12 13 13 13 12 10 8 8 6 5 5 6 8 10 11 13 13 13 11 11 11 11 12 12 13 14 16
6 7 7 8 8 8 7 7 7 6 5 4 4 4 5 5 6 7 8 9 10 11 12 13 11 10 9 10 10 8 7 7 7 7 7 8 9 9 10 10 9 9 9 11 11 12 12 12 11 10 9 7 5 5 5 4 3 4 5 7 8 9 9 10 9 8 9 11 11 12 12 13 14 16
6 6 7 7 7 6 5 5 5 5 4 4 4 5 6 6 7 7 7 8 9 9 10 9 7 7 8 8 9 8 7 6 6 7 7 8 8 8 8 7 7 8 10 11 11 11 11 10 8 6 5 5 4 5 6 5 5 5 8 10 10 10 10 10 9 9 10 10 10 11 11 12 14 16
6 6 5 5 4 4 4 4 4 4 4 5 6 8 9 9 10 10 10 10 9 9 8 7 6 5 7 8 9 8 7 5 6 6 7 7 7 7 7 8 9 10 10 9 9 10 10 10 9 8 8 8 7 5 5 4 4 4 7 9 9 9 9 8 9 10 10 9 10 11 12 13 15 16
4 4 4 4 3 3 4 4 5 6 7 9 10 12 12 12 12 11 10 10 8 7 8 8 7 6 7 8 9 7 6 5 6 6 6 7 7 8 8 9 9 9 9 9 9 9 10 11 10 9 8 8 8 6 5 4 4 4 4 5 6 6 7 9 12 13 12 12 12 13 14 14 16 16
4 4 4 5 5 6 7 8 8 9 9 10 10 10 9 9 9 9 8 7 6 6 7 8 7 6 7 8 8 6 5 5 5 5 6 6 7 6 6 6 7 8 8 9 8 7 7 5 3 3 4 4 5 5 4 4 5 5 3 4 6 7 9 12 14 14 14 13 13 12 13 14 16 15
4 4 4 3 3 3 3 3 4 4 5 5 6 7 7 8 7 6 5 5 4 4 5 6 6 6 7 7 7 6 5 5 4 5 6 6 5 5 4 5 5 6 5 5 4 3 2 2 1 3 6 7 7 6 6 5 6 5 5 7 9 10 11 12 11 11 10 10 9 10 12 14 15 13
2 3 4 5 5 6 6 5 4 4 3 4 4 5 6 6 5 4 3 3 3 3 4 5 5 5 6 5 5 5 4 4 4 5 5 5 5 5 5 4 3 3 4 4 4 3 1 1 3 6 8 9 9 8 7 6 5 5 6 8 9 9 9 8 6 6 7 6 7 10 12 12 11 10
8 9 9 10 10 10 9 8 7 5 4 4 5 6 7 7 6 5 4 4 4 4 4 4 5 5 5 5 5 4 4 4 4 4 3 2 2 3 2 2 3 4 4 5 6 6 5 4 5 7 8 8 9 8 7 6 6 7 8 8 8 8 7 7 7 8 8 8 9 12 12 11 10 9
12 12 12 12 12 12 12 11 10 9 7 6 6 6 7 8 7 7 6 5 5 5 5 5 6 7 7 8 8 7 6 5 4 2 1 0 1 2 4 6 6 5 5 6 7 7 6 5 7 8 8 9 9 9 9 9 10 10 8 7 8 9 10 10 10 10 11 12 12 12 11 11 12 11
13 13 13 13 13 14 14 13 13 12 11 9 8 7 8 9 8 7 5 5 6 8 9 10 11 11 11 10 9 8 7 6 4 3 1 1 3 4 4 4 4 5 6 6 7 6 6 7 7 7 8 9 9 9 9 9 9 9 8 8 8 9 10 10 11 12 13 12 11 10 10 11 13 14
13 13 14 15 15 15 15 14 13 13 12 11 9 9 10 10 8 5 5 7 10 11 12 12 12 11 10 9 8 7 6 6 4 3 3 4 4 3 2 1 1 3 4 5 5 6 6 6 6 7 8 9 9 8 8 8 10 11 11 11 11 11 11 11 11 11 10 8 6 7 8 10 12 14
13 13 14 15 15 15 15 14 12 12 12 10 9 9 10 9 8 8 10 11 12 12 11 11 11 10 8 7 6 5 5 6 5 4 5 5 5 5 6 5 3 3 3 3 4 4 5 6 8 9 10 10 9 8 8 10 12 12 12 13 14 13 12 10 8 5 4 3 4 7 8 10 12 13
11 11 12 13 13 13 13 13 12 12 12 10 8 9 9 7 7 9 12 12 11 10 10 10 9 7 6 5 5 4 4 5 4 4 3 3 5 7 8 8 6 4 2 2 3 5 6 8 10 10 9 9 9 8 9 10 12 12 12 12 11 10 10 8 5 3 3 4 6 8 10 12 13 12
Wind_Direction
204 207 208 208 207 202 200 204 207 206 207 208 208 208 208 206 196 190 192 195 198 197 190 188 186 178 179 187 189 187 190 192 189 187 187 186 183 181 181 184 185 185 185 185 184 182 180 178 177 176 179 185 192 201 213 224 230 236 237 238 241 244 250 258 268 279 288 297 302 304 306 306 306 306
199 197 197 196 199 199 197 199 203 204 204 207 208 206 210 220 233 232 207 194 194 196 192 193 203 197 187 186 193 195 197 200 198 196 197 195 193 191 190 191 193 192 191 190 189 188 185 184 184 187 193 201 214 227 236 241 243 245 244 242 243 245 250 258 266 275 282 285 287 289 292 294 296 297
197 192 189 191 193 194 192 192 197 202 203 206 206 204 210 218 236 260 227 194 192 198 197 195 202 209 195 185 193 204 204 207 208 207 207 206 205 203 201 200 199 196 195 195 195 192 191 192 196 201 207 216 228 237 241 243 245 245 246 247 247 248 253 259 266 272 276 279 282 285 288 292 296 298
193 191 192 194 193 190 188 190 196 199 200 206 208 207 213 217 227 242 229 210 203 194 190 194 195 197 196 190 197 207 209 211 214 215 215 215 216 215 212 206 200 198 199 200 198 198 200 203 208 214 222 230 236 242 245 247 248 251 254 257 260 263 266 270 276 279 281 284 286 290 294 299 304 305
194 193 192 191 191 191 192 191 192 193 194 200 206 210 212 213 220 229 227 230 232 196 180 188 200 200 199 201 207 212 213 214 217 220 222 222 224 225 221 212 204 202 204 204 204 207 210 213 219 226 234 240 244 247 250 252 256 260 265 270 272 275 278 281 285 288 290 292 294 297 301 304 307 308
193 193 189 184 185 192 196 192 185 183 187 193 201 207 209 213 222 230 233 235 242 230 197 191 203 209 208 214 220 220 218 222 229 232 233 231 227 226 226 220 213 209 207 209 213 217 219 221 227 235 241 247 250 253 257 261 265 271 279 285 285 285 286 288 291 293 295 297 299 300 302 303 305 305
189 192 189 185 184 185 189 190 187 185 187 196 203 207 212 220 227 233 236 235 241 246 228 207 210 215 214 219 229 224 217 225 240 243 243 242 233 226 226 225 221 217 214 217 221 223 225 228 234 240 246 250 254 261 267 270 273 277 283 291 294 296 298 297 298 299 300 300 300 301 302 302 303 304
188 189 186 182 177 173 175 184 188 188 193 204 210 215 222 226 227 230 233 234 241 247 240 228 225 224 224 226 224 215 208 214 232 239 242 244 238 232 228 227 226 223 223 227 229 230 231 233 238 243 248 252 258 266 272 275 278 279 283 289 293 297 301 301 302 305 306 305 304 304 303 303 305 308
184 184 180 174 168 164 166 172 178 185 199 209 213 217 221 221 222 228 231 234 241 245 243 239 232 224 227 232 223 214 215 220 224 229 235 239 240 238 233 231 230 227 228 232 234 234 235 236 240 245 250 254 259 265 270 275 280 282 284 286 289 293 296 295 296 304 308 308 306 305 304 305 309 313
170 174 171 167 163 163 166 166 164 169 180 191 201 206 208 211 218 225 232 237 239 239 241 244 237 226 225 231 232 227 227 232 238 241 240 239 240 239 237 235 233 231 232 235 237 240 241 242 245 249 252 256 259 262 267 273 280 283 285 285 286 289 290 286 286 295 303 306 306 305 306 309 312 315
155 162 163 163 164 166 174 173 162 161 168 171 176 183 188 196 206 216 224 230 232 233 237 241 243 241 235 232 237 243 240 239 244 250 251 249 246 244 243 241 238 236 237 239 241 244 244 245 247 249 252 254 256 259 262 266 273 277 280 282 283 285 286 280 277 285 296 303 305 307 310 312 314 316
146 158 161 163 169 176 185 187 178 175 181 185 177 164 169 190 202 205 208 213 221 231 240 241 241 245 243 238 237 241 241 240 242 246 251 254 255 255 256 254 248 243 242 243 245 245 246 245 245 245 248 252 255 258 260 263 269 273 275 277 278 280 280 275 273 280 291 300 306 309 312 315 317 318
146 159 166 171 177 184 193 201 206 198 194 199 198 177 167 192 209 209 207 211 218 225 233 237 239 241 243 243 241 240 241 246 251 252 252 255 258 259 260 259 253 247 246 247 248 248 248 249 248 247 251 256 258 259 261 264 268 272 273 273 274 274 271 268 269 276 287 298 306 312 316 319 320 321
156 163 171 179 186 194 203 212 224 227 220 220 222 219 213 212 214 219 225 229 225 223 227 233 238 240 241 242 243 246 250 252 253 252 254 257 259 257 256 257 254 249 247 247 249 250 250 249 251 253 257 261 261 259 261 264 267 271 272 270 267 265 262 262 265 272 283 296 306 314 320 322 322 322
167 172 177 183 190 198 208 216 225 236 242 243 243 241 240 239 233 226 228 233 230 226 227 228 232 236 237 237 239 245 251 254 253 254 256 258 259 256 257 259 259 254 250 248 250 254 253 250 252 257 261 262 261 260 261 262 265 268 266 262 259 257 258 259 262 270 281 294 306 315 321 322 323 324
174 179 188 196 200 203 214 225 231 235 243 249 251 251 252 254 251 244 238 240 243 244 244 242 243 246 248 246 245 246 250 254 256 257 256 257 258 257 256 257 258 258 257 255 256 259 259 256 256 259 261 262 262 262 260 259 259 258 254 253 254 254 256 258 260 266 276 289 303 314 319 322 324 324
185 191 213 227 230 228 229 238 244 245 247 248 249 253 255 256 258 257 254 251 253 259 262 260 259 262 267 270 266 259 253 250 250 252 254 257 261 261 259 259 262 263 262 262 262 263 264 263 262 263 262 262 261 260 258 255 252 249 245 244 246 249 253 254 255 260 271 285 300 311 317 321 322 320
189 198 224 243 258 253 242 244 251 257 259 254 251 253 253 252 253 255 256 255 255 258 266 268 266 266 270 274 275 270 258 249 248 250 252 255 259 262 263 266 269 267 264 263 264 266 266 266 268 269 267 264 260 258 257 253 249 248 245 241 242 245 247 247 247 253 266 282 296 307 314 318 317 315
202 224 249 263 272 271 265 262 263 270 272 265 262 261 255 251 248 246 247 249 250 253 262 269 271 271 273 275 276 274 267 260 257 257 258 260 261 263 264 264 265 263 261 261 262 266 268 269 271 272 270 264 258 255 255 252 249 248 245 243 244 244 241 242 243 248 262 278 291 302 308 311 312 311
277 281 280 280 283 286 284 278 273 273 270 264 263 265 263 257 250 245 244 245 249 257 266 273 276 278 279 280 280 279 276 272 268 264 263 263 264 265 265 265 266 266 265 264 263 265 268 269 269 269 267 263 260 259 259 255 249 247 248 252 252 245 239 239 240 245 260 274 285 295 301 305 306 305
296 295 286 279 283 289 289 285 279 272 266 264 262 260 260 258 253 251 251 252 257 264 271 277 279 281 282 282 281 279 278 278 275 272 270 269 269 270 271 271 271 271 270 269 269 269 269 268 266 266 267 270 271 269 268 264 258 256 257 257 252 244 237 236 237 244 260 271 280 290 297 300 300 300
282 279 273 269 270 271 269 269 269 265 263 264 260 253 250 249 249 251 254 258 263 267 272 276 277 278 279 279 281 281 281 282 282 282 284 284 279 278 280 280 278 277 279 282 283 279 276 276 275 276 277 277 274 270 269 268 267 265 260 250 242 237 233 234 236 245 257 265 276 285 290 294 294 296
262 258 258 258 256 252 248 249 251 250 252 255 257 256 251 247 249 253 257 261 263 266 269 271 272 274 277 280 286 288 289 291 291 291 296 296 289 287 290 290 288 289 294 299 296 290 288 289 288 286 281 276 273 271 267 262 260 257 249 240 236 231 225 226 232 241 250 259 268 274 278 284 287 291
253 251 251 249 248 248 246 245 244 245 250 254 259 261 257 253 253 255 259 262 264 267 272 277 281 285 287 288 290 290 292 294 293 294 300 301 295 292 294 296 298 299 302 303 301 298 300 302 300 294 283 271 267 270 270 262 253 248 242 238 233 224 218 222 231 244 259 267 269 270 272 274 279 284
255 253 250 248 247 245 243 243 243 246 251 252 253 257 259 261 262 263 268 273 277 282 286 291 294 294 293 291 289 289 291 292 291 294 298 299 296 293 293 297 301 303 303 302 300 298 301 305 304 298 286 274 269 273 279 269 251 237 225 218 218 217 220 229 242 259 270 268 264 267 269 270 272 277
247 243 240 240 240 238 242 248 253 261 266 265 267 271 275 279 281 282 284 287 289 289 288 288 289 289 288 288 286 285 287 290 293 297 300 301 300 299 299 302 303 301 298 295 290 285 286 290 290 285 279 271 263 260 260 250 232 219 208 203 209 221 231 240 254 265 264 261 264 267 268 267 266 270
234 236 239 243 247 256 267 271 274 280 282 282 283 285 286 288 289 290 291 291 290 288 286 285 284 284 285 286 286 285 286 289 295 299 302 304 305 305 307 309 308 306 303 298 290 282 279 281 280 273 265 255 242 234 230 218 209 209 209 204 207 219 231 242 250 254 257 263 270 269 266 263 264 271
237 244 250 257 264 270 272 273 275 278 279 281 283 285 287 290 290 291 291 291 290 288 286 285 284 283 284 284 283 283 284 290 298 301 303 305 307 309 311 311 311 309 307 303 298 291 285 278 266 250 238 227 225 232 236 233 226 220 217 218 224 233 243 249 250 253 261 267 266 259 258 262 269 279
250 254 258 260 262 263 264 264 264 264 265 270 274 277 282 286 290 294 298 299 300 301 302 302 299 295 292 288 287 287 289 295 302 303 303 305 305 306 308 310 309 307 306 303 297 290 283 273 262 254 253 255 258 262 264 263 259 256 258 262 264 266 268 266 263 264 268 267 258 254 263 275 285 293
248 249 250 248 244 242 242 242 243 246 252 259 265 271 279 288 296 307 314 317 322 331 338 338 332 323 312 301 295 293 294 296 298 300 302 302 299 299 301 302 301 301 302 299 293 286 280 274 272 274 278 282 285 285 283 279 273 272 276 279 277 275 273 271 268 269 270 268 267 275 285 295 302 307
229 227 227 223 218 220 225 231 239 249 257 265 273 283 294 306 319 328 333 336 343 349 350 349 348 345 339 326 310 299 298 300 299 298 298 296 294 293 294 296 298 300 301 299 294 289 285 281 283 287 288 288 285 283 283 282 278 275 277 276 270 266 266 268 269 270 273 277 285 295 304 309 313 314
225 221 221 220 219 221 226 235 246 254 257 262 272 289 305 322 335 340 340 343 346 348 348 348 349 352 358 357 345 327 316 314 312 305 299 297 296 297 298 300 302 300 299 298 295 294 294 295 298 298 295 292 289 284 286 291 291 284 274 265 263 260 259 264 269 271 278 285 293 303 308 311 313 313
232 228 224 223 224 225 228 236 242 243 244 252 264 285 305 321 329 329 330 335 340 344 345 345 344 350 3 7 2 350 331 317 317 325 327 320 313 310 309 307 304 300 299 299 298 298 300 300 299 295 291 294 298 294 292 298 296 275 254 247 254 256 253 253 254 256 268 282 293 303 308 312 315 314
222 221 219 216 214 214 217 225 227 227 239 258 271 285 299 309 316 320 325 332 339 342 343 342 343 354 4 8 9 4 347 318 309 321 332 330 321 315 311 305 300 298 299 299 297 297 297 297 293 282 269 267 269 277 289 301 300 278 262 255 251 247 245 246 251 264 278 290 302 309 310 314 317 315
206 203 207 206 200 200 210 219 223 233 252 272 285 295 300 303 307 313 317 322 330 335 335 334 336 345 357 7 13 14 7 347 332 333 334 327 317 310 304 298 296 296 297 298 296 294 293 292 288 278 269 268 270 274 287 306 324 315 292 279 266 257 259 273 291 303 304 301 303 304 303 309 317 317
211 201 207 216 225 246 261 269 278 286 291 296 298 297 296 295 297 302 308 315 324 327 324 325 330 341 356 5 12 19 18 4 350 346 338 324 316 314 310 308 310 312 310 306 302 298 296 295 293 292 290 286 283 283 283 296 332 340 318 303 300 295 297 306 312 310 302 295 296 298 300 311 323 322
264 261 267 270 275 282 285 289 295 299 301 305 307 305 305 304 304 308 313 317 320 321 325 332 342 351 352 352 359 19 33 22 7 355 338 324 318 315 316 321 327 325 321 318 315 309 299 294 307 0 13 355 334 325 319 320 332 336 319 307 307 298 293 297 300 298 295 292 293 296 304 316 324 323
288 288 296 300 304 313 316 313 317 323 327 330 329 326 324 323 321 323 328 331 332 335 339 342 347 350 349 350 3 24 28 12 355 339 325 320 320 320 328 338 340 342 351 358 352 328 286 258 311 17 19 17 10 3 356 346 333 315 292 290 293 290 291 297 300 297 292 289 292 302 312 318 323 324
75 87 85 81 76 65 60 55 39 22 14 359 347 344 345 346 344 344 349 359 9 17 13 6 4 7 10 19 34 37 20 350 332 324 320 326 337 338 339 349 12 50 67 72 60 34 6 322 345 356 2 8 11 9 6 357 335 309 298 299 303 302 299 302 311 315 308 303 306 308 308 312 318 323
87 89 85 78 71 64 59 54 46 39 33 27 27 30 28 20 12 10 12 20 32 37 32 27 25 22 27 40 44 33 11 346 333 328 325 339 351 348 359 65 100 102 89 70 54 45 42 28 14 8 6 9 11 6 357 344 325 315 309 304 308 315 313 313 322 325 321 314 308 302 299 304 312 314
85 83 80 74 68 63 57 51 46 44 43 43 44 40 31 25 29 35 36 38 49 56 58 63 62 52 44 41 36 26 16 2 345 331 323 347 87 112 115 111 104 92 73 55 46 46 43 26 12 6 359 355 349 339 328 319 314 315 311 301 299 304 306 308 311 311 309 309 305 298 295 300 307 311
87 83 78 72 65 59 55 50 45 42 40 40 39 35 33 37 45 50 47 57 75 78 74 71 65 55 47 43 37 29 21 11 359 0 26 87 119 122 125 126 111 83 64 47 32 26 20 8 0 356 349 342 332 324 321 322 324 327 328 321 309 302 300 302 300 296 298 304 306 305 305 308 311 316
84 78 71 65 58 53 48 44 41 37 35 35 37 45 51 52 55 64 74 82 84 77 69 64 59 53 49 47 43 38 33 24 21 51 95 110 108 90 72 92 87 53 44 31 11 4 1 351 345 345 345 341 337 334 336 343 344 340 334 327 322 317 314 311 302 295 297 305 320 329 328 321 316 317
77 72 64 56 51 45 41 39 38 37 37 40 48 62 66 61 63 83 92 87 78 67 59 58 59 57 54 51 47 50 53 47 55 99 118 104 72 43 31 29 17 4 15 24 10 357 350 341 338 338 339 341 344 347 347 347 344 338 333 331 330 329 328 324 308 291 289 313 332 336 332 324 318 316
70 66 58 50 44 40 37 38 39 41 43 49 65 82 85 73 67 79 80 71 62 57 56 59 62 61 59 54 54 66 73 67 77 110 117 70 41 30 28 30 26 12 12 14 350 339 336 333 330 330 330 333 339 343 342 339 338 336 336 338 343 353 2 4 353 339 342 341 334 328 324 320 316 314